Printer-friendly version

IAU Minor Planet Center

Minor Planet Center

MPEC 2008-R53 : COMET P/1999 WJ7 = 2008 R4 (KORLEVIC)

The following Minor Planet Electronic Circular may be linked-to from your own Web pages, but must not otherwise be redistributed electronically.


Read MPEC 2008-R52 Read MPEC 2008-R54


M.P.E.C. 2008-R53                                Issued 2008 Sept.  9, 20:32 UT

     The Minor Planet Electronic Circulars contain information on unusual
         minor planets and routine data on comets.  They are published
   on behalf of Commission 20 of the International Astronomical Union by the
          Minor Planet Center, Smithsonian Astrophysical Observatory,
                          Cambridge, MA 02138, U.S.A.

             Prepared using the Tamkin Foundation Computer Network

                              MPC@CFA.HARVARD.EDU
          URL http://www.cfa.harvard.edu/iau/mpc.html  ISSN 1523-6714

                     COMET P/1999 WJ7 = 2008 R4 (KORLEVIC)

Observations:
    PK08R040  C2008 09 03.24478 00 09 59.68 +04 59 39.4          20.3 N ER053691
    PK08R040  C2008 09 03.26252 00 09 59.19 +04 59 37.2          20.4 N ER053691
    PK08R040  C2008 09 03.28370 00 09 58.53 +04 59 32.8          19.9 N ER053691
    PK08R040  C2008 09 09.42907 00 06 50.62 +04 42 58.6                 ER053691
    PK08R040  C2008 09 09.43620 00 06 50.37 +04 42 56.8                 ER053691

Observer details:
691 Steward Observatory, Kitt Peak.  Observers T. H. Bressi, J. V. Scotti.
    Sept. 3 observations identified by G. V. Williams.  0.9-m f/3 reflector
    + CCD.

Orbital elements:
    P/1999 WJ7 = 2008 R4 (Korlevic)
Epoch 2000 Feb. 26.0 TT = JDT 2451600.5
T 2000 Feb. 15.80254 TT                                 MPC
q   3.1673328            (2000.0)            P               Q
n   0.09880942     Peri.  154.53149     +0.08549632     -0.99514889
a   4.6337984      Node   290.53264     +0.90500234     +0.09799874
e   0.3164716      Incl.    2.97929     +0.41672669     -0.00865680
P   9.97

Epoch 2010 Feb. 13.0 TT = JDT 2455240.5
T 2010 Feb. 8.19837 TT                                  MPC
q   3.1821246            (2000.0)            P               Q
n   0.09841083     Peri.  154.54431     +0.08471186     -0.99521923
a   4.6463021      Node   290.56503     +0.90507905     +0.09725760
e   0.3151275      Incl.    2.97583     +0.41672030     -0.00892433
P  10.02
Residuals in seconds of arc
991103 704  0.9+  0.5+    000222 589  0.3+  0.1-    010219 704  0.1+  1.1+
991103 704  0.1-  0.4-    000222 589  0.7+  0.5-    010219 704  2.0-  0.4-
991103 704  0.5-  0.5-    000224 589  0.5+  0.1-    010219 704  0.4-  1.8-
991103 704  0.2+  0.0     000224 589  0.1+  0.2+    010219 360  0.2+  0.6-
991103 704  0.6-  0.1+    000224 589  1.0+  0.3-    010219 360  0.3+  0.5-
991114 704  0.7-  0.3+    000224 589  0.3+  0.0     010220 348  0.5-  0.3-
991114 704  1.1-  0.1+    000227 360  0.3+  0.1+    010220 348  0.4-  0.2-
991114 704  0.6-  0.0     000227 360  0.3+  0.1+    010222 704  0.0   0.1-
991114 704  1.2-  0.2-    000301 402  0.2+  0.2+    010222 704  0.2-  0.2-
991114 704 (2.3-  0.4-)   000301 402  0.5+  0.3+    010222 704  0.4-  1.0-
991116 704  1.2-  0.4+    000301 402  0.5+  0.6+    010222 704  1.3-  0.0
991116 704  1.8-  0.5+    000303 703  0.6+  0.2+    010222 704 (2.5-  0.0 )
991116 704  1.7-  0.5+    000303 703  0.4+  0.4+    010222 348  0.4+  0.9-
991116 704  1.2-  0.3-    000303 703  0.6+  0.6+    010222 348  0.8+  1.2-
991116 704 (2.1-  0.8+)   000303 703  0.5+  0.3+    010222 349  0.5-  0.4+
991128 120  0.2-  0.2-    000304 704  0.7+  0.8-    010222 349  0.3-  0.4+
991128 120 (2.4-  0.6-)   000304 704  0.1-  0.6+    010222 349  0.0   0.1+
991129 120  0.2-  1.0-    000304 704  0.2+  1.1+    010225 349  0.2-  0.6-
991129 120  0.8-  0.1-    000304 704  0.6+  0.7+    010225 349  0.2+  0.6-
991205 120 (2.4-  0.2-)   000304 704  0.6+  0.8+    010225 349  0.5-  0.2+
991205 120  1.1-  0.2-    000330 360  0.2+  0.3+    010226 348  0.1-  0.2+
991207 704  0.8-  0.5+    000330 360  0.3+  0.2+    010226 348  0.7-  0.1-
991207 704  1.6-  0.1-    001108 699 (5.0-  2.0+)   010302 704  0.3+  0.0
991207 704  1.1-  0.2+    001108 699 (4.6-  2.2+)   010302 704  0.0   1.1-
991207 704  1.6-  0.2-    001108 699 (5.1-  2.2+)   010302 704  0.6-  0.6-
991207 704  1.8-  0.2+    001108 699 (5.8-  2.6+)   010302 704  0.0   0.7+
991207 120  1.0-  0.5+    001128 360  0.0   0.2-    010311 608  0.4+  1.1+
991207 120  1.3-  0.1+    001128 360  0.2-  0.1-    010311 608  0.4-  1.8+
991230 046  0.5-  0.5+    001204 300  0.9-  0.4-    010311 608  0.3+  1.2+
991230 120  0.5+  0.5-    001204 300  0.5-  0.2+    010314 699  1.8-  1.9+
991230 046  0.0   0.3+    001204 300  0.3-  0.2+    010314 699 (2.1-  1.8+)
991230 046  0.2+  0.1-    001205 360  0.2-  0.1-    010314 699 (4.5-  2.9+)
991230 120  0.4+  0.5-    001205 360  0.0   0.2-    010314 699 (3.1-  2.3+)
991230 046  0.2-  0.5-    001208 349  1.8-  1.0+    010315 360  0.7+  0.1-
991230 046  0.3-  0.4+    001208 349  0.5+  0.7+    010315 360  1.0+  0.3-
991231 120  0.1+  0.4-    001208 349  0.4-  0.5-    010318 704 (2.0+  0.5-)
991231 120  0.7+  0.4-    001208 349  0.1+  0.9+    010318 704  1.7+  0.7-
991231 120  0.6+  0.9-    001221 349  0.3-  0.1-    010318 704  1.2+  1.2+
991231 120  0.1-  0.5-    001221 349  1.0-  0.5+    010318 704  0.3+  1.2+
991231 120  0.8+  0.2-    001223 699  1.6-  1.0+    010318 608  0.9-  0.0
991231 120  0.2-  0.1-    001223 699  0.7-  1.5+    010318 608  0.8-  0.1+
000102 046  0.1+  0.0     001223 699 (2.9-  1.2+)   010318 608  0.5-  0.3-
000102 046  0.3-  0.3+    001223 699  0.5-  1.5+    010318 349  1.5+  0.9+
000102 046  0.3-  0.2+    001229 402  0.4-  0.2-    010318 349  0.5-  1.0+
000103 704  1.5+  0.4-    001229 402  0.5-  0.1-    010318 349  0.7+  0.6+
000103 704  0.9+  0.0     001229 402  0.3-  0.1-    010318 170  1.6-  0.3+
000103 704  0.4+  0.3+    010101 349  0.8-  0.9+    010318 170  0.3-  0.7-
000103 704 (0.5+  2.0-)   010101 349  0.1+  0.5+    010324 704 (2.6+  0.3-)
000103 704  1.4-  1.9-    010101 349  0.9-  0.6-    010324 704  1.9+  0.2+
000104 704  1.6+  0.4-    010120 704  0.5+  0.2+    010324 704  1.2+  0.1-
000104 704  0.0   0.0     010120 704  0.0   1.4+    010324 704  0.4+  0.7+
000104 704  0.6+  0.5-    010120 704  0.2+  0.5-    010329 699 (2.0-  2.5+)
000104 704  0.0   0.0     010120 704  1.6-  0.3+    010329 699 (2.2-  2.5+)
000104 704  1.0-  0.9-    010121 704  1.2+  0.1+    010329 699 (2.6-  2.2+)
000112 104  0.2+  0.6+    010121 704  0.1+  0.8+    010329 699 (4.8-  3.5+)
000112 104  0.3+  0.5+    010121 704  1.0-  1.5-    010413 170  1.2+  0.2-
000112 104  0.3+  0.6-    010121 704  0.8-  1.2-    010413 170  1.6+  0.3+
000114 046  0.4+  0.2+    010121 704 (2.2-  0.0 )   010426 360  1.5+  0.5-
000114 046  0.5+  0.4+    010129 704  0.4+  0.3-    010426 360  1.1+  0.4-
000114 046  0.4+  0.3+    010129 704  0.3-  0.4+    010512 170 (2.4+  0.2-)
000114 046  0.4+  0.2+    010129 704  0.6+  0.9-    010512 170  1.2+  0.4-
000126 120  0.1-  0.2-    010129 704  0.9-  0.1+    010522 608 (2.0+  0.5-)
000126 120  0.4+  0.3+    010129 704 (2.8-  0.8-)   010522 608  1.9+  0.4+
000126 120  0.7+  0.2+    010129 320  0.5+  0.6-    010522 608  1.7+  0.4-
000127 120  1.2+  0.3+    010129 320  0.5+  0.1-    020405 699  0.5+  0.3+
000127 120  0.6+  0.2+    010129 320  0.4-  0.2-    020405 699  0.4+  1.0+
000201 118  0.3+  0.4+    010129 320  0.2+  0.5-    020405 699  0.3-  0.9+
000201 118  0.6+  0.1+    010130 320  0.2+  0.4-    020405 699  0.4-  0.3+
000201 118  0.6+  0.4+    010130 320  0.8+  0.4-    020412 704 (2.6+  0.0 )
000204 120  1.9+  0.2-    010131 704  0.6+  0.2-    020412 704  0.8+  0.5-
000204 120 (2.0+  0.0 )   010131 704  0.3-  0.5-    020412 704  0.3+  1.0-
000204 120  1.4+  0.0     010131 704  0.5-  1.2-    020412 704 (3.0+  0.5-)
000211 704  0.3-  0.7+    010131 704  1.7-  1.8-    080903 691  0.7-  0.1+
000211 704  0.9+  0.0     010131 704 (4.2-  1.0+)   080903 691  0.1-  0.5+
000211 704  0.8+  0.5+    010216 349  0.0   0.3+    080903 691  0.5-  0.7-
000211 704  0.8+  0.4+    010216 349  0.2-  0.1-    080909 691  0.7+  0.4+
000211 704  1.1+  0.3+    010216 349  0.1+  0.1-    080909 691  0.5+  0.1-
000222 589  0.7+  0.1+    010219 704  1.2+  0.5+
000222 589  0.3-  0.0     010219 704  0.3+  0.2-

Ephemeris:
    P/1999 WJ7 = 2008 R4 (Korlevic)
Date    TT    R. A. (2000) Decl.     Delta      r     Elong.  Phase   m1    m2
2008 09 01    00 11.05   +05 05.0    3.177    4.108   154.0     6.2        20.6
2008 09 11    00 06.00   +04 38.3    3.102    4.082   164.9     3.7        20.4
2008 09 21    00 00.30   +04 05.4    3.054    4.055   174.9     1.3        20.1
2008 10 01    23 54.43   +03 28.8    3.037    4.029   171.2     2.2        20.2
2008 10 11    23 48.89   +02 51.9    3.049    4.003   160.3     4.8        20.3
2008 10 21    23 44.16   +02 18.0    3.089    3.977   149.2     7.4        20.5
2008 10 31    23 40.62   +01 50.0    3.154    3.951   138.3     9.6        20.6
2008 11 10    23 38.57   +01 30.2    3.240    3.925   127.8    11.5        20.7
2008 11 20    23 38.13   +01 20.0    3.342    3.899   117.5    13.0        20.8
2008 11 30    23 39.35   +01 20.1    3.457    3.873   107.7    14.0        20.9
2008 12 10    23 42.17   +01 30.6    3.580    3.848    98.3    14.7        21.0
2008 12 20    23 46.49   +01 51.0    3.706    3.823    89.3    14.9        21.1
2008 12 30    23 52.17   +02 20.7    3.832    3.797    80.6    14.8        21.1
2009 01 09    23 59.08   +02 59.0    3.954    3.772    72.3    14.4        21.2
2009 01 19    00 07.05   +03 44.7    4.069    3.748    64.2    13.7        21.2
2009 01 29    00 15.96   +04 37.0    4.176    3.723    56.4    12.7        21.2
2009 02 08    00 25.69   +05 34.9    4.272    3.699    48.9    11.6        21.2
2009 02 18    00 36.12   +06 37.5    4.355    3.675    41.6    10.3        21.2
2009 02 28    00 47.17   +07 43.7    4.424    3.652    34.5     8.8        21.1

Brian G. Marsden             (C) Copyright 2008 MPC           M.P.E.C. 2008-R53

Read MPEC 2008-R52 Read MPEC 2008-R54


Our Web policy. Index to the CBAT/MPC/ICQ pages.


Valid HTML 4.01!